Flag for Mozambique Weather past 2 weeks in Maputo, Mozambique

Now
79 °F

Passing clouds.


Feels Like: 80 °F
Forecast: 62 / 82 °F
Wind: 17 mph from East

Location: Maputo / Mavalane

Current Time: Sep 22, 2014 at 3:06:14 PM

Latest Report: Sep 22, 2014 at 2:00 PM


Visibility: N/A

Pressure: 30.21 "Hg

Humidity: 51%

Dew point: 59 °F

Location of MaputoLocation

Historic Weather in Maputo — Graph

°F

Maputo temperature yesterday

Maximum temperature yesterday: 77 °F (at 2:00 PM)
Minimum temperature yesterday: 64 °F (at 12:00 AM)
Average temperature yesterday: 70 °F

Past Weeks' High & Low Weather Summary

 TemperatureHumidityPressure
High99 °F (Sep 12, 1:00 PM)94% (Sep 7, 11:00 PM)30.36 "Hg (Sep 7, 11:00 PM)
Low57 °F (Sep 8, 5:00 AM)13% (Sep 15, 2:00 PM)29.71 "Hg (Sep 18, 3:00 PM)
Average75 °F64%30.08 "Hg
* Reported Sep 7 1:00 PM — Sep 22 1:00 PM, Maputo, Weather by CustomWeather, © 2014

Note: Actual official high and low records may vary slightly from our data, if they occured in-between our weather recording intervals... More about our weather records

Advertising

Maputo weather history for previous 24 hours

 ConditionsComfort  
Time TempWeatherWind HumidityBarometerVisibility
1:00 PM
Sep 22
79 °FPassing clouds.16 mph51%30.21 "HgN/A
12:00 PM81 °FScattered clouds.14 mph48%30.24 "HgN/A
11:00 AM79 °FPartly sunny.8 mph51%30.27 "HgN/A
10:00 AM77 °FPartly sunny.7 mph54%30.30 "HgN/A
9:00 AM73 °FPartly sunny.9 mph57%30.33 "HgN/A
8:00 AM70 °FPartly sunny.6 mph69%30.33 "HgN/A
7:00 AM66 °FPartly sunny.5 mph78%30.30 "HgN/A
6:00 AM64 °FPartly sunny.2 mph83%30.27 "HgN/A
5:00 AM64 °FPartly sunny.2 mph83%30.24 "HgN/A
4:00 AM64 °FPassing clouds.2 mph83%30.24 "HgN/A
3:00 AM64 °FPassing clouds.2 mph83%30.24 "HgN/A
2:00 AM64 °FPassing clouds.3 mph83%30.24 "HgN/A
12:00 AM68 °FPassing clouds.10 mph78%30.24 "HgN/A
11:00 PM
Sep 21
68 °FPassing clouds.9 mph78%30.27 "HgN/A
10:00 PM70 °FPassing clouds.12 mph73%30.24 "HgN/A
9:00 PM70 °FPassing clouds.10 mph73%30.24 "HgN/A
8:00 PM70 °FClear.8 mph73%30.24 "Hg10 mi
7:00 PM70 °FClear.10 mph73%30.21 "Hg10 mi
6:00 PM70 °FClear.12 mph73%30.18 "Hg10 mi
4:00 PM75 °FPassing clouds.14 mph61%30.21 "HgN/A
3:00 PM77 °FScattered clouds.12 mph57%30.18 "HgN/A
Weather by CustomWeather, © 2014

See weather overviewHow to use our weather pages